Snowfall_Accumulation
0.0 0.0 0.0 0.0 0.0 0.0 0.0 0.0 0.0 0.0 0.0 0.0 0.0 0.0 0.0 0.0 0.0 0.0 0.0 0.0 0.0 0.0 0.0 0.0 0.0 0.0 0.0 0.0 0.0 0.0 0.0 0.0 0.0 0.0 0.0 0.0 0.0 0.0 0.0 0.0 0.0 0.0 0.0 0.0
0.0 0.0 0.0 0.0 0.0 0.0 0.0 0.0 0.0 0.0 0.0 0.0 0.0 0.0 0.0 0.0 0.0 0.0 0.0 0.0 0.0 0.0 0.0 0.0 0.0 0.0 0.0 0.0 0.0 0.0 0.0 0.0 0.0 0.0 0.0 0.0 0.0 0.0 0.0 0.0 0.0 0.0 0.0 0.0
0.0 0.0 0.0 0.0 0.0 0.0 0.0 0.0 0.0 0.0 0.0 0.0 0.0 0.0 0.0 0.0 0.0 0.0 0.0 0.0 0.0 0.0 0.0 0.0 0.0 0.0 0.0 0.0 0.0 0.0 0.0 0.0 0.0 0.0 0.0 0.0 0.0 0.0 0.0 0.0 0.0 0.0 0.0 0.0
0.0 0.0 0.0 0.0 0.0 0.0 0.0 0.0 0.0 0.0 0.0 0.0 0.0 0.0 0.0 0.0 0.0 0.0 0.0 0.0 0.0 0.0 0.0 0.0 0.0 0.0 0.0 0.0 0.0 0.0 0.0 0.0 0.0 0.0 0.0 0.0 0.0 0.0 0.0 0.0 0.0 0.0 0.0 0.0
0.0 0.0 0.0 0.0 0.0 0.0 0.0 0.0 0.0 0.0 0.0 0.0 0.0 0.0 0.0 0.0 0.0 0.0 0.0 0.0 0.0 0.0 0.0 0.0 0.0 0.0 0.0 0.0 0.0 0.0 0.0 0.0 0.0 0.0 0.0 0.0 0.0 0.0 0.0 0.0 0.0 0.0 0.0 0.0
0.0 0.0 0.0 0.0 0.0 0.0 0.0 0.0 0.0 0.0 0.0 0.0 0.0 0.0 0.0 0.0 0.0 0.0 0.0 0.0 0.0 0.0 0.0 0.0 0.0 0.0 0.0 0.0 0.0 0.0 0.0 0.0 0.0 0.0 0.0 0.0 0.0 0.0 0.0 0.0 0.0 0.0 0.0 0.0
0.0 0.0 0.0 0.0 0.0 0.0 0.0 0.0 0.2 0.2 0.2 0.0 0.0 0.0 0.0 0.0 0.0 0.0 0.0 0.0 0.0 0.0 0.0 0.0 0.0 0.0 0.0 0.0 0.0 0.0 0.0 0.0 0.0 0.0 0.0 0.0 0.0 0.0 0.0 0.0 0.0 0.0 0.0 0.0
0.0 0.1 0.0 0.0 0.0 0.0 0.0 0.0 0.1 0.0 0.1 0.0 0.0 0.0 0.0 0.0 0.0 0.0 0.0 0.0 0.0 0.0 0.0 0.0 0.0 0.0 0.0 0.0 0.0 0.0 0.0 0.0 0.0 0.0 0.0 0.0 0.0 0.0 0.0 0.0 0.0 0.0 0.0 0.0
0.0 0.0 0.0 0.0 0.0 0.0 0.0 0.0 0.0 0.0 0.0 0.1 0.0 0.0 0.0 0.0 0.0 0.0 0.0 0.0 0.0 0.0 0.0 0.0 0.0 0.0 0.0 0.0 0.0 0.0 0.0 0.0 0.0 0.0 0.0 0.0 0.0 0.0 0.0 0.0 0.0 0.0 0.0 0.0
0.0 0.1 0.0 0.0 0.0 0.0 0.0 0.0 0.4 0.3 0.2 0.1 0.1 0.0 0.7 0.0 0.0 0.0 0.0 0.0 0.0 0.0 0.0 0.0 0.0 0.0 0.0 0.0 0.0 0.0 0.0 0.0 0.0 0.0 0.0 0.0 0.0 0.0 0.1 0.1 0.2 0.2 0.1 0.1
0.0 0.1 0.0 0.0 0.0 0.0 0.0 0.1 0.0 0.1 0.1 0.5 1.2 1.9 0.1 0.3 0.1 0.0 0.0 0.0 0.0 0.0 0.0 0.1 0.1 0.0 0.0 0.0 0.0 0.1 0.2 0.2 0.1 0.0 0.0 0.0 0.2 0.3 0.3 0.4 0.3 0.5 0.4 0.3
0.0 0.0 0.2 0.0 0.0 0.0 0.0 0.0 0.0 1.0 0.0 0.0 0.4 2.3 0.0 0.1 0.1 0.0 0.0 0.0 0.0 0.0 0.0 0.1 1.0 1.8 1.0 1.5 2.0 1.3 0.3 0.2 0.1 0.0 0.1 0.3 0.5 0.5 0.5 0.5 0.5 0.4 0.6 0.4
0.0 0.0 0.3 0.1 0.1 0.0 0.0 0.0 0.0 0.0 0.1 0.0 4.8 4.5 0.0 0.0 0.0 0.0 0.0 0.0 0.0 0.0 0.0 0.0 0.2 0.4 4.1 0.4 2.5 1.2 1.5 2.3 0.8 0.2 0.4 0.8 1.2 0.8 1.1 1.0 0.6 0.4 0.6 0.6
nan 0.0 0.2 0.4 0.0 0.0 0.1 0.0 0.0 0.0 1.0 0.2 0.8 1.3 0.1 0.0 0.0 0.0 0.0 0.0 0.0 0.0 0.1 0.1 0.1 0.2 0.2 0.6 1.6 5.7 1.7 2.1 2.3 2.0 1.3 1.3 2.1 2.2 2.1 1.0 0.7 0.2 0.1 0.1
0.0 0.0 0.4 0.0 0.0 0.0 0.0 0.1 0.0 0.2 0.0 0.6 0.8 0.1 0.1 0.0 0.0 0.0 0.0 0.0 0.0 0.1 0.1 0.1 0.1 0.1 0.1 0.1 0.2 0.1 0.3 3.0 5.1 3.3 3.2 4.4 2.6 1.5 0.6 0.6 0.3 0.1 0.2 0.2
0.0 0.3 0.8 3.5 0.0 0.0 0.2 0.0 0.0 0.1 0.1 0.1 0.1 0.0 0.0 0.0 0.0 0.0 0.0 0.0 0.1 0.1 0.1 0.1 0.1 0.0 0.0 0.0 0.1 0.1 0.1 1.0 0.8 4.6 6.3 3.1 2.3 2.6 1.6 0.8 0.4 0.3 0.2 0.6
0.1 1.7 1.2 0.9 0.0 0.0 1.2 0.7 0.2 0.1 0.0 0.0 0.2 0.0 0.0 0.0 0.0 0.1 0.0 0.1 0.1 0.1 0.1 0.0 0.1 0.1 0.1 0.0 0.0 0.1 0.1 0.2 0.2 1.4 6.5 4.7 4.1 6.9 4.6 1.1 1.4 1.8 2.8 1.9
0.4 0.6 0.3 1.5 0.2 1.8 0.7 0.0 0.0 0.0 0.0 0.0 0.0 0.0 0.0 0.0 0.1 0.1 0.1 0.1 0.0 0.0 0.0 0.0 0.0 0.0 0.1 0.0 0.0 0.0 0.0 0.0 0.2 0.1 0.5 3.5 4.3 6.6 8.2 5.5 5.6 5.9 3.4 3.8
0.0 0.2 1.4 2.8 0.5 0.1 0.0 0.0 0.0 0.1 0.1 0.0 0.0 0.0 0.0 0.0 0.0 0.1 0.0 0.0 0.1 0.2 0.1 0.5 0.2 0.1 0.0 0.0 0.0 0.0 0.0 0.0 0.0 0.1 0.1 0.1 2.1 5.0 5.1 6.8 7.7 5.9 5.6 5.6
0.0 0.0 0.7 0.5 0.4 1.3 0.1 0.0 0.0 0.0 2.1 0.0 0.0 0.0 0.0 0.0 0.6 1.2 0.1 0.1 0.1 1.2 1.0 0.7 0.8 0.1 0.3 0.3 0.0 1.0 0.8 0.2 0.4 0.4 0.2 0.1 0.1 0.2 0.9 1.8 4.3 4.2 2.4 4.5
0.6 1.0 0.9 0.5 0.7 0.3 0.0 0.0 0.0 1.8 0.4 0.0 0.0 0.0 0.0 0.6 0.4 0.2 0.1 0.1 0.1 1.3 4.0 1.4 2.1 2.5 2.5 2.1 1.1 2.4 4.6 4.6 2.8 1.7 0.2 0.4 0.2 0.3 0.2 0.2 0.3 0.4 0.4 0.6
0.1 1.5 1.2 0.5 1.0 0.5 0.0 0.0 0.1 0.4 0.0 0.0 0.0 0.1 1.8 1.8 2.6 2.2 1.5 1.5 0.5 1.1 2.4 4.8 5.1 5.1 3.9 3.2 3.0 2.9 3.1 6.0 5.3 4.1 4.2 3.5 2.5 1.7 1.0 0.9 0.8 0.6 0.4 0.4
0.9 0.2 0.8 0.1 0.6 0.0 0.0 0.0 0.0 0.0 0.0 0.0 0.0 0.0 0.3 2.1 2.4 1.5 0.4 0.1 0.2 0.9 1.9 0.9 5.3 6.1 5.1 3.5 3.2 4.5 5.2 4.3 4.5 5.6 6.3 6.2 4.3 4.5 3.2 2.7 2.7 2.1 1.0 1.7
0.0 0.0 0.4 0.1 0.0 0.0 0.0 0.0 0.0 0.0 0.0 0.0 0.0 0.0 0.1 0.4 0.8 1.0 0.2 0.1 0.1 0.1 0.2 0.1 0.2 2.7 5.1 5.8 3.0 2.8 3.2 3.5 3.7 4.0 4.1 5.3 6.5 4.5 4.9 3.5 3.5 3.9 3.8 4.3
0.4 0.1 0.0 0.1 0.4 0.0 0.0 0.0 0.0 0.0 0.0 0.0 0.0 0.0 0.1 0.1 0.2 0.2 0.2 0.1 0.1 0.1 0.1 0.1 0.1 0.2 0.7 0.4 2.0 2.3 1.9 1.4 0.9 1.2 2.1 1.0 1.0 2.0 2.7 3.9 4.0 3.3 5.2 4.0
0.2 0.2 1.0 1.4 0.0 0.0 0.1 0.1 0.0 0.0 0.1 0.0 0.0 0.0 0.0 0.0 0.0 0.0 0.0 0.0 0.0 0.0 0.0 0.0 0.0 0.0 0.0 0.0 0.1 0.1 0.0 0.1 0.3 0.2 0.7 1.3 1.3 1.4 1.7 2.0 2.7 nan nan nan
Water_Equivalent
0.00 0.00 0.00 0.00 0.00 0.00 0.00 0.00 0.00 0.00 0.00 0.00 0.00 0.00 0.00 0.00 0.00 0.00 0.00 0.00 0.00 0.00 0.00 0.00 0.00 0.00 0.00 0.00 0.00 0.00 0.00 0.00 0.00 0.00 0.00 0.00 0.00 0.00 0.00 0.00 0.00 0.00 0.00 0.00
0.00 0.00 0.00 0.00 0.00 0.00 0.00 0.00 0.00 0.00 0.00 0.00 0.00 0.00 0.00 0.00 0.00 0.00 0.00 0.00 0.00 0.00 0.00 0.00 0.00 0.00 0.00 0.00 0.00 0.00 0.00 0.00 0.00 0.00 0.00 0.00 0.00 0.00 0.00 0.00 0.00 0.00 0.00 0.00
0.00 0.00 0.00 0.00 0.00 0.00 0.00 0.00 0.00 0.00 0.00 0.00 0.00 0.00 0.00 0.00 0.00 0.00 0.00 0.00 0.00 0.00 0.00 0.00 0.00 0.00 0.00 0.00 0.00 0.00 0.00 0.00 0.00 0.00 0.00 0.00 0.00 0.00 0.00 0.00 0.00 0.00 0.00 0.00
0.00 0.00 0.00 0.00 0.00 0.00 0.00 0.00 0.00 0.00 0.00 0.00 0.00 0.00 0.00 0.00 0.00 0.00 0.00 0.00 0.00 0.00 0.00 0.00 0.00 0.00 0.00 0.00 0.00 0.00 0.00 0.00 0.00 0.00 0.00 0.00 0.00 0.00 0.00 0.00 0.00 0.00 0.00 0.00
0.00 0.00 0.00 0.00 0.00 0.00 0.00 0.00 0.00 0.00 0.00 0.00 0.00 0.00 0.00 0.00 0.00 0.00 0.00 0.00 0.00 0.00 0.00 0.00 0.00 0.00 0.00 0.00 0.00 0.00 0.00 0.00 0.00 0.00 0.00 0.00 0.00 0.00 0.00 0.00 0.00 0.00 0.00 0.00
0.00 0.00 0.00 0.00 0.00 0.00 0.00 0.00 0.00 0.00 0.00 0.00 0.00 0.00 0.00 0.00 0.00 0.00 0.00 0.00 0.00 0.00 0.00 0.00 0.00 0.00 0.00 0.00 0.00 0.00 0.00 0.00 0.00 0.00 0.00 0.00 0.00 0.00 0.00 0.00 0.00 0.00 0.00 0.00
0.00 0.00 0.00 0.00 0.00 0.00 0.00 0.00 0.06 0.04 0.04 0.01 0.00 0.00 0.00 0.00 0.00 0.00 0.00 0.00 0.00 0.00 0.00 0.00 0.00 0.00 0.00 0.00 0.00 0.00 0.00 0.00 0.00 0.00 0.00 0.00 0.00 0.00 0.00 0.00 0.00 0.00 0.00 0.00
0.01 0.02 0.00 0.00 0.00 0.00 0.00 0.00 0.03 0.00 0.04 0.00 0.00 0.00 0.00 0.00 0.00 0.00 0.00 0.00 0.00 0.00 0.00 0.00 0.00 0.00 0.00 0.00 0.00 0.00 0.00 0.00 0.00 0.00 0.00 0.00 0.00 0.00 0.00 0.00 0.00 0.00 0.00 0.00
0.00 0.00 0.00 0.00 0.00 0.00 0.00 0.00 0.00 0.00 0.00 0.02 0.00 0.00 0.00 0.00 0.00 0.00 0.00 0.00 0.00 0.00 0.00 0.00 0.00 0.00 0.00 0.00 0.00 0.00 0.00 0.00 0.00 0.00 0.00 0.00 0.00 0.00 0.00 0.00 0.00 0.00 0.00 0.00
0.00 0.02 0.00 0.00 0.00 0.00 0.00 0.00 0.09 0.07 0.03 0.02 0.02 0.00 0.18 0.01 0.00 0.00 0.00 0.00 0.00 0.00 0.00 0.00 0.00 0.00 0.00 0.00 0.00 0.00 0.00 0.00 0.01 0.00 0.00 0.00 0.00 0.00 0.02 0.03 0.04 0.03 0.02 0.02
0.00 0.01 0.00 0.00 0.00 0.00 0.00 0.03 0.00 0.02 0.02 0.10 0.24 0.41 0.03 0.07 0.01 0.00 0.00 0.00 0.00 0.00 0.01 0.02 0.03 0.01 0.01 0.00 0.00 0.02 0.05 0.04 0.01 0.00 0.00 0.00 0.04 0.06 0.06 0.07 0.06 0.09 0.08 0.05
0.00 0.00 0.05 0.00 0.00 0.00 0.00 0.00 0.00 0.21 0.01 0.00 0.09 0.48 0.00 0.01 0.02 0.00 0.00 0.00 0.00 0.00 0.01 0.02 0.29 0.54 0.26 0.39 0.51 0.28 0.06 0.04 0.03 0.01 0.02 0.05 0.09 0.08 0.09 0.11 0.10 0.08 0.11 0.07
0.00 0.00 0.06 0.03 0.03 0.00 0.00 0.00 0.00 0.00 0.02 0.01 0.86 0.81 0.00 0.00 0.00 0.00 0.00 0.00 0.00 0.00 0.00 0.01 0.03 0.09 1.15 0.08 0.61 0.26 0.34 0.44 0.21 0.05 0.07 0.12 0.19 0.14 0.21 0.17 0.12 0.08 0.12 0.12
nan 0.00 0.06 0.10 0.01 0.00 0.02 0.00 0.00 0.01 0.22 0.05 0.16 0.29 0.01 0.00 0.00 0.00 0.00 0.00 0.00 0.00 0.01 0.01 0.02 0.03 0.03 0.12 0.37 1.44 0.35 0.41 0.56 0.57 0.25 0.22 0.36 0.38 0.35 0.17 0.12 0.04 0.03 0.02
0.00 0.00 0.14 0.01 0.00 0.00 0.01 0.01 0.00 0.05 0.00 0.13 0.16 0.02 0.01 0.00 0.00 0.00 0.00 0.00 0.00 0.01 0.01 0.02 0.02 0.02 0.02 0.02 0.03 0.03 0.07 0.67 1.20 0.87 0.79 0.96 0.48 0.28 0.13 0.11 0.05 0.02 0.05 0.04
0.00 0.06 0.20 1.01 0.00 0.00 0.05 0.01 0.00 0.02 0.02 0.03 0.02 0.01 0.00 0.00 0.00 0.00 0.00 0.01 0.01 0.01 0.01 0.01 0.01 0.01 0.01 0.01 0.02 0.01 0.02 0.19 0.18 0.79 1.17 0.59 0.52 0.82 0.38 0.18 0.08 0.07 0.04 0.14
0.02 0.40 0.25 0.19 0.00 0.00 0.22 0.14 0.05 0.02 0.00 0.00 0.04 0.00 0.00 0.00 0.00 0.01 0.01 0.01 0.02 0.01 0.01 0.01 0.01 0.01 0.01 0.01 0.00 0.01 0.02 0.04 0.05 0.27 1.40 1.16 0.92 1.83 0.85 0.22 0.30 0.36 0.72 0.55
0.08 0.13 0.08 0.33 0.05 0.29 0.13 0.00 0.00 0.00 0.00 0.00 0.00 0.00 0.00 0.00 0.01 0.02 0.01 0.01 0.00 0.01 0.01 0.00 0.00 0.01 0.01 0.00 0.00 0.00 0.00 0.00 0.04 0.02 0.10 0.73 0.85 1.38 2.51 1.24 1.31 1.43 0.63 0.70
0.01 0.04 0.30 0.58 0.12 0.03 0.00 0.00 0.00 0.02 0.01 0.00 0.00 0.00 0.00 0.01 0.00 0.02 0.00 0.01 0.03 0.04 0.03 0.10 0.03 0.02 0.01 0.01 0.00 0.00 0.00 0.00 0.00 0.01 0.02 0.03 0.50 0.95 1.07 1.55 2.02 1.78 1.62 1.58
0.00 0.01 0.17 0.12 0.07 0.24 0.01 0.00 0.00 0.00 0.51 0.00 0.00 0.00 0.00 0.00 0.11 0.26 0.02 0.01 0.02 0.26 0.24 0.14 0.18 0.02 0.09 0.10 0.01 0.23 0.17 0.06 0.08 0.08 0.04 0.02 0.02 0.05 0.19 0.39 0.96 1.19 0.67 1.25
0.14 0.22 0.18 0.13 0.14 0.06 0.00 0.00 0.00 0.40 0.08 0.00 0.00 0.00 0.01 0.16 0.09 0.05 0.03 0.02 0.02 0.26 0.97 0.38 0.59 0.52 0.49 0.58 0.32 0.52 1.12 0.87 0.58 0.46 0.06 0.10 0.06 0.08 0.07 0.06 0.09 0.11 0.12 0.16
0.03 0.31 0.27 0.11 0.19 0.08 0.00 0.00 0.03 0.10 0.00 0.00 0.00 0.03 0.54 0.48 0.60 0.49 0.33 0.30 0.11 0.21 0.46 1.16 0.81 0.91 0.72 0.80 0.88 0.77 0.69 1.67 1.39 0.94 0.84 0.73 0.55 0.41 0.26 0.22 0.23 0.17 0.11 0.14
0.20 0.05 0.17 0.03 0.13 0.00 0.00 0.00 0.00 0.00 0.00 0.00 0.00 0.01 0.07 0.45 0.47 0.30 0.07 0.02 0.04 0.17 0.32 0.18 0.87 0.96 0.73 0.55 0.74 0.98 1.06 1.18 1.14 1.40 1.29 1.25 1.06 1.03 0.80 0.66 0.64 0.50 0.26 0.41
0.01 0.00 0.09 0.01 0.01 0.00 0.00 0.00 0.00 0.00 0.01 0.00 0.00 0.01 0.02 0.08 0.15 0.19 0.05 0.02 0.01 0.01 0.03 0.02 0.05 0.35 0.70 0.87 0.47 0.49 0.62 0.65 0.95 0.81 0.76 1.08 1.16 0.94 0.91 0.77 0.77 0.78 0.77 0.87
0.14 0.02 0.01 0.02 0.12 0.00 0.00 0.01 0.00 0.00 0.01 0.01 0.01 0.01 0.02 0.02 0.04 0.04 0.04 0.02 0.02 0.03 0.03 0.02 0.03 0.03 0.12 0.08 0.31 0.38 0.36 0.28 0.18 0.22 0.42 0.21 0.20 0.35 0.46 0.59 0.60 0.52 0.73 0.64
0.05 0.05 0.26 0.34 0.01 0.00 0.02 0.02 0.01 0.01 0.01 0.00 0.00 0.00 0.00 0.00 0.01 0.00 0.00 0.00 0.00 0.00 0.00 0.00 0.00 0.00 0.00 0.01 0.02 0.01 0.01 0.01 0.07 0.04 0.15 0.28 0.29 0.30 0.31 0.35 0.45 nan nan nan
SL_Ratio
nan nan nan nan nan nan nan nan nan nan nan nan nan nan nan nan nan nan nan nan nan nan nan nan nan nan nan nan nan nan nan nan nan nan nan nan nan nan nan nan nan nan nan nan
nan nan nan nan nan nan nan nan nan nan nan nan nan nan nan nan nan nan nan nan nan nan nan nan nan nan nan nan nan nan nan nan nan nan nan nan nan nan nan nan nan nan nan nan
nan nan nan nan nan nan nan nan nan nan nan nan nan nan nan nan nan nan nan nan nan nan nan nan nan nan nan nan nan nan nan nan nan nan nan nan nan nan nan nan nan nan nan nan
nan nan nan nan nan nan nan nan nan nan nan nan nan nan nan nan nan nan nan nan nan nan nan nan nan nan nan nan nan nan nan nan nan nan nan nan nan nan nan nan nan nan nan nan
nan nan nan nan nan nan nan nan nan nan nan nan nan nan nan nan nan nan nan nan nan nan nan nan nan nan nan nan nan nan nan nan nan nan nan nan nan nan nan nan nan nan nan nan
nan nan nan nan nan nan nan nan nan nan nan 5.0 nan nan nan nan nan nan nan nan nan nan nan nan nan nan nan nan nan nan nan nan nan nan nan nan nan nan nan nan nan nan nan nan
nan nan nan nan nan nan nan nan 4.1 4.5 4.2 4.3 nan nan nan nan nan nan nan nan nan nan nan nan nan nan nan nan nan nan nan nan nan nan nan nan nan nan nan nan nan nan nan nan
3.3 3.6 nan nan nan nan nan nan 4.3 4.3 3.8 nan nan nan nan nan nan nan nan nan nan nan nan nan nan nan nan nan nan nan nan nan nan nan nan nan nan nan nan nan nan nan nan nan
nan 5.0 nan nan nan nan nan 3.3 nan nan 0.0 4.2 nan nan nan nan nan nan nan nan nan nan nan nan nan nan nan nan nan nan nan nan nan nan nan nan nan nan nan nan nan 5.0 nan nan
nan 4.6 nan nan nan nan nan nan 4.1 3.7 5.4 5.1 3.7 nan 4.0 3.6 nan nan nan nan nan nan 5.0 3.3 nan 5.0 nan nan nan nan nan 0.0 5.0 nan nan nan nan 5.0 5.4 5.3 5.5 5.5 5.5 5.6
nan 4.6 nan nan nan nan nan 3.4 nan 3.6 4.0 4.6 4.9 4.6 3.8 3.6 3.8 4.0 nan 0.0 4.0 5.0 4.2 3.5 3.5 3.7 3.5 3.6 4.0 4.7 5.1 5.1 4.7 nan nan 5.0 5.5 5.4 5.3 5.3 5.2 5.6 5.7 5.3
nan 4.0 4.3 nan nan nan nan nan nan 4.7 4.8 0.0 4.2 4.8 nan 4.0 4.1 nan nan nan nan 0.0 4.7 4.5 3.4 3.3 3.8 3.8 4.0 4.9 4.8 4.0 3.6 4.3 5.7 5.9 5.9 5.5 5.3 4.9 5.0 5.2 5.5 5.3
nan 3.3 4.5 4.3 4.6 nan nan nan nan 3.3 3.9 5.0 5.6 5.6 nan 3.8 nan nan nan nan nan nan 0.0 4.8 4.5 4.8 3.6 4.9 4.0 4.6 4.5 5.3 3.8 4.3 5.8 6.1 6.3 5.8 5.4 5.7 5.4 5.0 5.4 5.3
nan nan 2.5 4.1 5.6 nan 4.8 nan nan 4.4 4.4 4.4 4.8 4.7 4.9 0.0 nan nan nan nan nan 5.0 5.2 5.5 5.3 5.3 5.2 4.7 4.4 3.9 4.8 5.0 4.1 3.5 5.1 5.8 5.9 5.8 6.0 5.8 5.6 5.3 5.4 5.5
3.1 4.7 2.6 2.7 nan nan 4.2 4.3 nan 4.6 nan 4.9 4.8 5.2 5.3 5.6 nan nan 0.0 nan 10.0 5.5 5.5 5.6 5.7 5.7 5.5 5.3 5.2 4.7 4.5 4.6 4.2 3.8 4.1 4.6 5.4 5.2 5.0 5.4 5.2 4.0 4.1 4.3
nan 4.4 4.1 3.4 nan nan 4.6 4.1 0.0 4.6 4.4 4.8 5.0 5.3 nan nan nan 5.7 5.8 5.4 5.9 5.8 5.4 5.4 5.3 5.6 5.2 4.8 4.8 4.4 4.8 5.0 4.7 5.8 5.3 5.2 4.3 3.2 4.1 4.2 5.0 4.6 4.7 4.2
4.2 4.3 4.7 5.1 nan 4.3 5.4 5.0 4.9 4.8 nan 0.0 5.1 3.3 nan 6.7 nan 5.6 5.8 5.7 6.1 5.5 5.5 5.6 5.3 5.2 5.0 5.0 5.0 4.9 4.8 4.5 4.6 5.0 4.6 4.1 4.5 3.8 5.4 5.0 4.7 4.9 3.9 3.4
4.3 4.4 4.3 4.5 4.6 6.2 5.0 3.3 nan 6.0 nan nan nan nan nan 5.7 5.6 5.6 5.5 5.5 5.5 5.4 5.0 5.6 6.0 5.3 5.0 nan nan nan nan 2.5 4.6 4.7 5.0 4.8 5.1 4.8 3.3 4.4 4.3 4.2 5.4 5.4
3.5 4.3 4.6 4.7 4.5 5.1 4.6 nan 5.0 4.8 5.0 nan nan nan nan 5.6 5.7 6.0 6.0 4.4 5.0 5.1 5.5 5.2 5.4 4.9 3.9 4.4 5.0 nan nan nan nan 4.0 4.5 4.4 4.2 5.3 4.8 4.4 3.8 3.3 3.5 3.6
5.0 3.9 4.2 4.1 6.3 5.7 5.4 nan nan nan 4.1 nan nan nan nan nan 5.1 4.5 4.2 4.5 4.6 4.6 4.4 4.8 4.3 3.8 3.6 3.5 3.0 4.2 4.6 4.1 4.9 4.7 4.4 4.1 4.0 4.1 4.4 4.6 4.5 3.6 3.6 3.6
4.5 4.7 4.7 3.9 4.6 4.3 nan nan nan 4.5 5.2 nan nan nan 3.4 4.1 4.4 4.3 4.2 4.1 4.2 4.9 4.1 3.8 3.6 4.8 5.2 3.6 3.3 4.6 4.1 5.3 4.8 3.8 3.7 3.9 3.9 3.6 3.3 3.2 3.2 3.4 3.5 3.7
4.9 4.8 4.5 4.5 5.3 5.8 nan nan 4.2 4.1 3.8 nan 3.0 3.3 3.4 3.8 4.2 4.5 4.6 5.2 4.8 5.1 5.3 4.1 6.3 5.6 5.4 4.0 3.4 3.8 4.5 3.6 3.8 4.4 5.0 4.8 4.6 4.1 3.7 3.9 3.5 3.4 3.3 3.0
4.6 4.3 4.8 4.9 4.7 3.3 nan 3.3 0.0 nan nan 4.3 4.5 3.6 4.0 4.7 5.1 4.9 5.0 4.7 4.8 5.0 5.7 5.1 6.1 6.4 7.0 6.4 4.4 4.6 4.9 3.6 3.9 4.0 4.9 4.9 4.0 4.4 4.0 4.1 4.2 4.1 4.0 4.1
3.2 nan 4.0 4.1 3.9 nan nan nan nan nan 4.1 4.0 0.0 4.1 4.0 5.0 5.2 5.5 5.0 4.7 5.0 5.0 5.2 4.8 5.1 7.8 7.3 6.7 6.4 5.6 5.2 5.3 3.9 4.9 5.4 4.9 5.6 4.8 5.4 4.6 4.6 5.0 4.9 5.0
3.2 3.6 4.8 4.2 3.5 nan 4.3 3.5 3.3 4.0 3.7 4.2 4.1 4.2 4.7 4.8 5.2 5.0 5.6 5.2 5.3 5.3 5.1 4.9 5.3 5.4 6.2 5.4 6.4 5.9 5.4 4.9 5.0 5.2 5.0 5.0 4.8 5.6 6.0 6.7 6.7 6.3 7.1 6.3
3.5 4.2 3.7 4.1 3.3 3.8 4.0 4.0 3.5 4.2 4.2 2.5 nan 4.5 nan 5.0 5.0 nan 5.0 10.0 nan nan nan nan nan 5.0 5.0 4.8 5.1 4.8 4.5 4.3 4.7 4.8 4.8 4.6 4.4 4.7 5.3 5.6 6.0 nan nan nan